This is the latest recevied weather packets stored in our database for station/object N2KI-13. If no packets are shown the sender has not sent any weather packets the latest 10 day(s).
| Time | Temp. | Humidity | Pressure | Rain* | Wind** | Luminosity | Snow |
|---|---|---|---|---|---|---|---|
| 1777819804 | 10° C | 44% | 1011.3 hPa | 0 mm | - | - | - |
| 1777818904 | 10° C | 45% | 1011.4 hPa | 0 mm | - | - | - |
| 1777815604 | 8.89° C | 55% | 1011.7 hPa | 0 mm | - | - | - |
| 1777813504 | 7.78° C | 60% | 1011.8 hPa | 0 mm | - | - | - |
| 1777812905 | 7.78° C | 62% | 1011.8 hPa | 0 mm | - | - | - |
| 1777809904 | 6.67° C | 65% | 1011.8 hPa | 0 mm | - | - | - |
| 1777807504 | 5.56° C | 67% | 1011.6 hPa | 0 mm | - | - | - |
| 1777807204 | 5.56° C | 66% | 1011.6 hPa | 0 mm | - | - | - |
| 1777805704 | 5° C | 68% | 1011.4 hPa | 0 mm | - | - | - |
| 1777805104 | 5° C | 69% | 1011.4 hPa | 0 mm | - | - | - |
| 1777804804 | 5° C | 70% | 1011.3 hPa | 0 mm | - | - | - |
| 1777804504 | 5° C | 70% | 1011.2 hPa | 0 mm | - | - | - |
| 1777804204 | 5° C | 70% | 1011.1 hPa | 0 mm | - | - | - |
| 1777803603 | 4.44° C | 70% | 1011.1 hPa | 0 mm | - | - | - |
| 1777802704 | 4.44° C | 72% | 1010.9 hPa | 0 mm | - | - | - |
| 1777800604 | 5° C | 70% | 1010.7 hPa | 0 mm | - | - | - |
| 1777799704 | 5° C | 69% | 1010.8 hPa | 0 mm | - | - | - |
| 1777798803 | 5.56° C | 67% | 1010.7 hPa | 0 mm | - | - | - |
| 1777795804 | 5.56° C | 67% | 1010.8 hPa | 0 mm | - | - | - |
| 1777793104 | 5° C | 79% | 1010.8 hPa | 0 mm | - | - | - |
| 1777791304 | 4.44° C | 80% | 1010.8 hPa | 0 mm | - | - | - |
| 1777789504 | 4.44° C | 79% | 1010.9 hPa | 0 mm | - | - | - |
| 1777787704 | 5° C | 77% | 1011.1 hPa | 0 mm | - | - | - |
| 1777786204 | 5° C | 75% | 1011.3 hPa | 0 mm | - | - | - |
| 1777784704 | 5.56° C | 71% | 1011.5 hPa | 0 mm | - | - | - |
* Rain latest hour (hover to see other rain measurements)
** Current wind speed in m/s (hover to see current wind gust speed)